+ View the NASA Portal
+ Center for Near-Earth Object Studies
IMPORTANT:
The SSD Announcement email list is now available. Major changes are coming in the near future, including possible hostname and/or URL changes. To be notified of such changes, subscribe to this email list.
Please visit
this page
for more details.
Don't show this message again
JPL Small-Body Database Browser
Search:
[
help
]
243150 (2007 TV29)
Classification:
Main-belt Asteroid
SPK-ID:
2243150
[
Ephemeris
|
Orbit Diagram
|
Orbital Elements
|
Mission Design
|
Physical Parameters
|
Discovery Circumstances
|
Close-Approach Data
]
[ show orbit diagram ]
Orbital Elements at Epoch 2458600.5 (2019-Apr-27.0) TDB
Reference:
JPL 17
(heliocentric ecliptic J2000)
Element
Value
Uncertainty (1-sigma)
Units
e
.1122966548062868
6.1737e-08
a
3.127411870929234
4.0687e-08
au
q
2.77621397962241
1.854e-07
au
i
12.05798372068472
7.2798e-06
deg
node
33.37270808147825
2.5893e-05
deg
peri
207.9686713254866
3.7796e-05
deg
M
174.2992079861183
2.7229e-05
deg
t
p
2457622.432202293848
(2016-Aug-21.93220229)
0.00015289
TDB
period
2020.114785617715
5.53
3.9422e-05
1.079e-07
d
yr
n
.1782076952077347
3.4776e-09
deg/d
Q
3.478609762236058
4.5256e-08
au
Orbit Determination Parameters
# obs. used (total)
247
data-arc span
5492 days (15.04 yr)
first obs. used
2003-12-21
last obs. used
2019-01-03
planetary ephem.
DE431
SB-pert. ephem.
SB431-N16
condition code
0
norm. resid. RMS
.52253
source
ORB
producer
Otto Matic
solution date
2019-Jul-14 10:16:47
Additional Information
Earth MOID
= 1.77096 au
Jupiter MOID
= 1.54141 au
T_jup
= 3.171
[ show covariance matrix ]
[
Ephemeris
|
Orbit Diagram
|
Orbital Elements
|
Mission Design
|
Physical Parameters
|
Discovery Circumstances
|
Close-Approach Data
]
Physical Parameter Table
Parameter
Symbol
Value
Units
Sigma
Reference
Notes
absolute magnitude
H
15.6
n/a
MPO433593
diameter
diameter
4.458
km
0.396
urn:nasa:pds:neowise_diameters_albedos::2.0[mainbelt] (http://adsabs.harvard.edu/abs/2011ApJ...741...68M)
geometric albedo
albedo
0.061
0.012
urn:nasa:pds:neowise_diameters_albedos::2.0[mainbelt] (http://adsabs.harvard.edu/abs/2011ApJ...741...68M)
243150 (2007 TV29)
Discovered 2007-Oct-04 by Spacewatch at Kitt Peak
Reference:
20100626/Numbers.arc
Last Updated:
2010-06-28
[ show close-approach data ]
[
Ephemeris
|
Orbit Diagram
|
Orbital Elements
|
Mission Design
|
Physical Parameters
|
Discovery Circumstances
|
Close-Approach Data
]
2019-Dec-08 19:10 UT
(server date/time)
Site Manager:
Ryan S. Park
Webmaster
:
Alan B. Chamberlin